Погода в Сан Мартин де Лос Андес

Аргентина     40°09′22″S   71°20′27″W
темп.,
°C
ветер,
м/с
пор.,
м/с
влажн.,
%
обл.,
%
осадки,
мм/ч
давл.,
гПа
погр.,
м
17 апреля, сб
сб1700:00+9в1133100 0.0 101610
03:00+6вюв11365 0.0 101610
06:00+5всв1136100 0.0 101510
09:00+6сз1137100 0.0 101611
12:00+12ссз222599 0.0 1015399
15:00+17сз47175 0.0 10121763
18:00+14зсз2428100 0.0 1012667
21:00+8з224685 0.0 101412
18 апреля, вс
вс1800:00+7з2259100 0.0 101524
03:00+8з226086 0.0 101428
06:00+6з226813 0.0 101418
09:00+7з2362100 0.0 101469
12:00+12зсз384798 0.0 1013948
15:00+9зсз2363100 0.0 1013185
18:00+7з2386100 0.6 101293
21:00+7з238580 0.9 101279
19 апреля, пн
пн1900:00+8зсз2380100 0.1 101274
03:00+7зсз227944 0.1 101022
06:00+7зсз2278100 0.0 100928
09:00+9сз3680100 0.0 1008238
12:00+10сз51782100 0.1 10081594
15:00+9сз31593100 4.5 10061387
18:00+8зюз3593100 4.6 1007472
21:00+6з3391100 6.8 1012202
20 апреля, вт
вт2000:00+5з2394100 1.3 1013151
03:00+4з3393100 1.8 1014128
06:00+5юз2291100 0.1 101286
09:00+5св0191100 0.2 1014116
12:00+8св117899 0.2 1014405
15:00+9с2371100 0.3 1014679
18:00+8ююв1178100 0.1 1015158
21:00+7ююв228799 0.9 101666
21 апреля, ср
ср2100:00+7в228697 0.0 101624
03:00+7юв2281100 0.0 101530
06:00+7юв1287100 0.2 101479
09:00+6зюз1292100 0.8 1015141
12:00+6зюз2294100 2.7 1016181
15:00+6зюз2393100 4.6 1015293
18:00+5з3494100 0.8 1015259
21:00+5зюз3496100 1.4 1014295